Effective Sunday, March 17, 2024, the National Weather Service National Data Buoy Center will discontinue its Dial-A-Buoy Interactive Voice Response system. For more information, see Service Change Notice 24-06 (PDF).

Station SHPF1 - SHP - Shell Point, FL Image indicating link to RSS feed of recent meteorological observations for station SHPF1


Conditions at SHPF1 as of
(2:54 pm EST)
1954 GMT on 02/26/2024:
Note: This report is more than two hours old
     

Click on the graph icon in the table below to see a time series plot of the last five days of that observation.

5-day plot - Wind Direction Wind Direction (WDIR):SSE ( 160 deg true )
5-day plot - Wind Speed Wind Speed (WSPD): 6.0 kts
5-day plot - Wind Gust Wind Gust (GST): 7.0 kts
5-day plot - Atmospheric Pressure Atmospheric Pressure (PRES):30.14 in
5-day plot - Air Temperature Air Temperature (ATMP): 64.4 °F
5-day plot - Dew Point Dew Point (DEWP): 54.0 °F
5-day plot - Tide (above MLLW) Tide (above MLLW) (TIDE): 3.61 ft
5-day plot - Wind Speed at 10 Meters Wind Speed at 10 meters (WSPD10M): 5.8 kts
5-day plot - Wind Speed at 20 Meters Wind Speed at 20 meters (WSPD20M): 5.8 kts
5-day plot -  Wind Speed, Wind Gust and Atmospheric Pressure Combined plot of Wind Speed, Gust, and Air Pressure
Previous observations
TIME
(EST)
5-day plot - Wind Direction
WDIR
 
5-day plot - Wind Speed
WSPD
kts
5-day plot - Wind Gust
GST
kts
5-day plot - Wave Height
WVHT
ft
5-day plot - Dominant Wave Period
DPD
sec
5-day plot - Average Wave Period
APD
sec
5-day plot - Mean Wave Direction
MWD
 
5-day plot - Atmospheric Pressure
PRES
in
5-day plot - Pressure Tendency
PTDY
in
5-day plot - Air Temperature
ATMP
°F
5-day plot - Water Temperature
WTMP
°F
5-day plot - Dew Point
DEWP
°F
5-day plot - Salinity
SAL
psu
5-day plot - Visibility
VIS
nmi
5-day plot - Tide (above MLLW)
TIDE
ft
2024-02-26 02:48 pmSSE 6.0 7.0----30.14- 64.6- 54.3-- 3.54
2024-02-26 02:42 pmSSE 5.1 7.0----30.14- 64.8- 54.1-- 3.51
2024-02-26 02:36 pmSSE 6.0 7.0----30.14- 64.6- 54.3-- 3.44
2024-02-26 02:30 pmSSE 7.0 8.0----30.14- 64.6- 54.1-- 3.38
2024-02-26 02:24 pmSSE 6.0 8.0----30.14- 64.8- 54.9-- 3.35
2024-02-26 02:18 pmSSE 7.0 8.0----30.14- 64.4- 55.0-- 3.28
2024-02-26 02:12 pmSSE 8.0 8.9----30.15- 64.2- 54.9-- 3.22
2024-02-26 02:06 pmSSE 8.0 8.9----30.15- 64.2- 55.0-- 3.15
2024-02-26 02:00 pmSSE 8.9 9.9----30.15-0.07 64.0- 55.2-- 3.08
2024-02-26 01:54 pmSSE 8.9 9.9----30.15- 64.2- 55.6-- 3.02
2024-02-26 01:48 pmSSE 9.9 11.1----30.15- 63.9- 55.0-- 2.95
2024-02-26 01:42 pmSSE 8.9 9.9----30.16- 63.7- 55.0-- 2.89
2024-02-26 01:36 pmSSE 8.9 9.9----30.16- 63.7- 55.0-- 2.79
2024-02-26 01:30 pmSSE 8.9 11.1----30.16- 64.0- 55.6-- 2.69
2024-02-26 01:24 pmSSE 8.0 8.9----30.17- 63.9- 55.2-- 2.62
2024-02-26 01:18 pmSSE 8.9 9.9----30.18- 63.7- 55.0-- 2.53
2024-02-26 01:12 pmSSE 8.0 9.9----30.18- 63.7- 54.9-- 2.43
2024-02-26 01:06 pmSSE 8.0 8.9----30.19- 63.9- 55.4-- 2.33
2024-02-26 01:00 pmSSE 7.0 8.9----30.19-0.03 63.5- 55.2-- 2.23
2024-02-26 12:54 pmSSE 7.0 8.9----30.19- 63.5- 54.9-- 2.13
2024-02-26 12:48 pmSSE 6.0 8.0----30.20- 63.7- 55.2-- 2.03
2024-02-26 12:42 pmSSE 7.0 8.0----30.20- 64.0- 55.9-- 1.94
2024-02-26 12:36 pmSSE 6.0 8.0----30.20- 63.9- 55.8-- 1.84
2024-02-26 12:30 pmSSE 6.0 7.0----30.20- 63.7- 55.8-- 1.77
2024-02-26 12:24 pmSSE 5.1 7.0----30.21- 63.5- 55.9-- 1.67
2024-02-26 12:18 pmSSE 5.1 6.0----30.21- 63.5- 56.1-- 1.57
2024-02-26 12:12 pmSSE 5.1 7.0----30.22- 63.5- 56.3-- 1.48
2024-02-26 12:06 pmSSE 6.0 7.0----30.22- 63.3- 56.3-- 1.41
2024-02-26 12:00 pmSSE 5.1 7.0----30.22+0.01 63.3- 56.3-- 1.31
2024-02-26 11:54 amSSE 5.1 7.0----30.22- 63.1- 56.5-- 1.21
2024-02-26 11:48 amSSE 6.0 8.0----30.22- 63.0- 56.5-- 1.15
2024-02-26 11:42 am SE 6.0 8.0----30.22- 62.8- 56.3-- 1.05
2024-02-26 11:36 am SE 6.0 8.0----30.22- 62.2- 56.1-- 0.98
2024-02-26 11:30 am SE 6.0 8.0----30.22- 62.4- 56.1-- 0.92
2024-02-26 11:24 am SE 7.0 8.0----30.22- 62.6- 56.3-- 0.85
2024-02-26 11:18 amSSE 7.0 8.0----30.22- 62.1- 55.9-- 0.79
2024-02-26 11:12 am SE 6.0 8.0----30.22- 62.1- 55.9-- 0.72
2024-02-26 11:06 am SE 7.0 8.9----30.22- 61.9- 55.6-- 0.66
2024-02-26 11:00 am SE 7.0 8.0----30.22+0.02 62.1- 55.9-- 0.62
2024-02-26 10:54 am SE 6.0 8.0----30.22- 61.5- 55.4-- 0.56
2024-02-26 10:48 am SE 7.0 8.0----30.22- 61.3- 55.2-- 0.52
2024-02-26 10:42 am SE 6.0 8.0----30.22- 61.3- 55.6-- 0.46
2024-02-26 10:36 am SE 6.0 7.0----30.22- 61.3- 55.8-- 0.43
2024-02-26 10:30 am SE 6.0 8.0----30.22- 61.0- 55.2-- 0.39
2024-02-26 10:24 am SE 6.0 8.0----30.22- 60.6- 54.9-- 0.36
2024-02-26 10:18 am SE 6.0 8.0----30.22- 60.6- 55.0-- 0.33
2024-02-26 10:12 am SE 6.0 8.0----30.22- 60.6- 55.2-- 0.33
2024-02-26 10:06 am SE 6.0 7.0----30.22- 60.3- 54.5-- 0.33
2024-02-26 10:00 am SE 6.0 7.0----30.22+0.05 60.4- 54.5-- 0.33
2024-02-26 09:54 am SE 5.1 6.0----30.23- 60.4- 54.7-- 0.30
2024-02-26 09:48 am SE 5.1 8.0----30.23- 60.3- 54.9-- 0.30
2024-02-26 09:42 am SE 6.0 7.0----30.22- 60.3- 54.9-- 0.30
2024-02-26 09:36 am SE 5.1 7.0----30.22- 59.9- 55.0-- 0.30
2024-02-26 09:30 amESE 5.1 7.0----30.22- 59.7- 55.0-- 0.33
2024-02-26 09:24 am SE 5.1 8.0----30.22- 59.7- 55.4-- 0.33
2024-02-26 09:18 am SE 6.0 7.0----30.21- 59.9- 55.8-- 0.33
2024-02-26 09:12 amESE 5.1 7.0----30.21- 59.5- 55.6-- 0.36
2024-02-26 09:06 amESE 4.1 8.0----30.21- 59.5- 56.3-- 0.39
2024-02-26 09:00 amESE 4.1 6.0----30.20+0.04 59.4- 57.2-- 0.43
2024-02-26 08:54 amESE 4.1 6.0----30.20- 58.8- 57.6-- 0.46
2024-02-26 08:48 amESE 2.9 6.0----30.20- 57.0- 56.1-- 0.49
2024-02-26 08:42 amENE 1.0 2.9----30.20- 55.6- 54.5-- 0.52
2024-02-26 08:36 amENE 1.9 6.0----30.20- 55.0- 54.0-- 0.56
2024-02-26 08:30 amENE 1.9 4.1----30.19- 55.4- 54.5-- 0.62
2024-02-26 08:24 amENE 1.9 2.9----30.19- 54.5- 53.6-- 0.66
2024-02-26 08:18 amENE 1.9 2.9----30.19- 53.6- 52.7-- 0.72
2024-02-26 08:12 amENE 1.9 4.1----30.19- 53.2- 52.3-- 0.75
2024-02-26 08:06 amENE 1.0 2.9----30.19- 52.7- 51.8-- 0.82
2024-02-26 08:00 am NE 1.9 2.9----30.19+0.03 51.8- 50.9-- 0.85
2024-02-26 07:54 am NE 1.9 2.9----30.19- 51.8- 50.7-- 0.92
2024-02-26 07:48 am NE 1.9 2.9----30.19- 51.6- 50.7-- 0.98
2024-02-26 07:42 amENE 1.0 2.9----30.19- 51.6- 50.7-- 1.05
2024-02-26 07:36 am NE 1.0 2.9----30.19- 51.4- 50.5-- 1.12
2024-02-26 07:30 amENE 1.0 2.9----30.19- 51.4- 50.5-- 1.15
2024-02-26 07:24 am NE 1.0 2.9----30.19- 51.3- 50.4-- 1.21
2024-02-26 07:18 am NE 1.9 4.1----30.18- 51.3- 50.2-- 1.28
2024-02-26 07:12 am NE 1.9 4.1----30.18- 51.1- 50.0-- 1.38
2024-02-26 07:06 am NE 1.9 2.9----30.18- 50.9- 49.8-- 1.44
2024-02-26 07:00 am NE 1.9 4.1----30.17+0.01 50.9- 49.6-- 1.51
2024-02-26 06:54 am NE 1.9 4.1----30.17- 51.3- 50.0-- 1.57
2024-02-26 06:48 am NE 1.9 4.1----30.17- 51.4- 50.4-- 1.67
2024-02-26 06:42 am NE 1.9 2.9----30.17- 51.3- 50.0-- 1.74
2024-02-26 06:36 am NE 1.0 2.9----30.16- 51.3- 50.2-- 1.80
2024-02-26 06:30 amENE 1.9 2.9----30.16- 51.4- 50.4-- 1.90
2024-02-26 06:24 amENE 1.9 2.9----30.16- 51.1- 50.2-- 1.97
2024-02-26 06:18 am E 1.9 2.9----30.16- 50.2- 49.1-- 2.03
2024-02-26 06:12 amENE 1.9 2.9----30.17- 50.2- 48.9-- 2.13
2024-02-26 06:06 amENE 1.0 2.9----30.17- 50.0- 48.7-- 2.20
2024-02-26 06:00 am NE 1.0 1.9----30.17+0.01 50.7- 49.5-- 2.26
2024-02-26 05:54 am NE 1.0 1.9----30.16- 50.4- 49.1-- 2.36
2024-02-26 05:48 am NE 1.0 1.9----30.16- 50.0- 48.7-- 2.43
2024-02-26 05:42 am- 0.0 1.9----30.16- 50.0- 48.7-- 2.53
2024-02-26 05:36 am NE 1.9 2.9----30.16- 50.2- 48.9-- 2.59
2024-02-26 05:30 am NE 1.9 2.9----30.16- 49.8- 48.4-- 2.66
2024-02-26 05:24 am NE 1.9 2.9----30.16- 50.0- 48.6-- 2.76
2024-02-26 05:18 amNNE 1.9 1.9----30.16- 50.0- 48.6-- 2.82
2024-02-26 05:12 am NE 1.9 2.9----30.16- 50.4- 48.9-- 2.89
2024-02-26 05:06 am NE 1.9 2.9----30.16- 50.5- 49.1-- 2.95
2024-02-26 05:00 am NE 1.9 4.1----30.16-0.01 50.5- 49.1-- 3.02
2024-02-26 04:54 am NE 1.9 4.1----30.16- 50.2- 48.7-- 3.08
2024-02-26 04:48 am NE 1.9 2.9----30.16- 50.2- 48.7-- 3.12
2024-02-26 04:42 am NE 1.9 4.1----30.16- 49.8- 48.4-- 3.22
2024-02-26 04:36 am NE 1.9 2.9----30.16- 49.8- 48.2-- 3.25
2024-02-26 04:30 am NE 1.9 2.9----30.16- 49.8- 48.2-- 3.28
2024-02-26 04:24 am NE 1.9 2.9----30.16- 49.8- 48.2-- 3.35
2024-02-26 04:18 amNNE 1.9 1.9----30.16- 50.2- 48.6-- 3.41
2024-02-26 04:12 amNNE 1.0 2.9----30.16- 50.0- 48.4-- 3.38
2024-02-26 04:06 am- 0.0 1.0----30.16- 50.4- 48.7-- 3.41
2024-02-26 04:00 am- 0.0 1.0----30.16-0.01 50.5- 48.9-- 3.48
2024-02-26 03:54 am- 0.0 1.0----30.16- 50.5- 48.9-- 3.51
2024-02-26 03:48 am- 0.0 1.9----30.16- 50.2- 48.4-- 3.58
2024-02-26 03:42 am NE 1.9 2.9----30.16- 50.4- 48.6-- 3.58
2024-02-26 03:36 amNNE 1.0 2.9----30.16- 50.7- 49.1-- 3.58
2024-02-26 03:30 am- 0.0 1.0----30.16- 50.7- 48.9-- 3.54
2024-02-26 03:24 am- 0.0 1.9----30.16- 50.4- 48.6-- 3.54
2024-02-26 03:18 amNNE 1.0 1.9----30.16- 50.7- 48.9-- 3.61
2024-02-26 03:12 amNNE 1.0 2.9----30.16- 50.5- 48.7-- 3.61
2024-02-26 03:06 amENE 1.0 2.9----30.16- 50.5- 48.6-- 3.58
2024-02-26 03:00 am NE 1.0 1.9----30.16-0.01 50.5- 48.7-- 3.58
2024-02-26 02:54 amNNE 2.9 4.1----30.16- 50.7- 48.7-- 3.51
2024-02-26 02:48 am NE 1.9 2.9----30.16- 50.5- 48.6-- 3.48
2024-02-26 02:42 amENE 2.9 2.9----30.16- 50.5- 48.6-- 3.51
2024-02-26 02:36 amNNE 1.0 2.9----30.16- 50.7- 48.7-- 3.48
2024-02-26 02:30 am NE 1.9 2.9----30.16- 50.4- 48.2-- 3.44
2024-02-26 02:24 am NE 1.9 2.9----30.16- 50.5- 48.4-- 3.38
2024-02-26 02:18 amNNE 1.9 2.9----30.17- 51.1- 48.9-- 3.35
2024-02-26 02:12 amNNE 2.9 2.9----30.17- 50.9- 48.7-- 3.31
2024-02-26 02:06 amNNE 1.9 2.9----30.17- 50.9- 48.9-- 3.25
2024-02-26 02:00 am N 1.0 2.9----30.17+0.00 50.9- 48.9-- 3.18
2024-02-26 01:54 amNNE 1.9 2.9----30.17- 51.1- 48.9-- 3.15
2024-02-26 01:48 am N 1.9 2.9----30.17- 51.4- 49.3-- 3.12
2024-02-26 01:42 amNNE 1.9 2.9----30.17- 51.4- 49.3-- 3.08
2024-02-26 01:36 am N 1.9 2.9----30.17- 51.4- 49.3-- 2.99
2024-02-26 01:30 amNNE 1.9 2.9----30.18- 51.4- 49.3-- 2.95
2024-02-26 01:24 am N 1.9 2.9----30.18- 51.6- 49.6-- 2.89
2024-02-26 01:18 am N 2.9 2.9----30.18- 51.4- 49.3-- 2.82
2024-02-26 01:12 amNNE 1.9 2.9----30.17- 51.4- 49.1-- 2.76
2024-02-26 01:06 amNNE 1.9 2.9----30.17- 51.4- 49.1-- 2.69
2024-02-26 01:00 amNNE 1.9 2.9----30.17+0.01 51.6- 49.3-- 2.66
2024-02-26 12:54 am N 1.9 1.9----30.17- 51.8- 49.3-- 2.59
2024-02-26 12:48 am N 1.0 1.9----30.17- 52.0- 49.5-- 2.53
2024-02-26 12:42 am N 1.0 1.0----30.17- 52.2- 49.5-- 2.43
2024-02-26 12:36 am N 1.0 1.9----30.17- 52.7- 50.0-- 2.36
2024-02-26 12:30 am- 0.0 1.0----30.16- 52.9- 50.0-- 2.30
2024-02-26 12:24 am N 1.0 1.0----30.17- 53.1- 50.4-- 2.23
2024-02-26 12:18 am N 1.0 1.0----30.17- 53.4- 50.4-- 2.17
2024-02-26 12:12 am N 1.0 1.0----30.17- 54.0- 51.1-- 2.10
2024-02-26 12:06 am N 1.0 1.9----30.17- 53.6- 50.9-- 2.03
2024-02-26 12:00 amNNW 1.9 1.9----30.17+0.02 53.8- 51.1-- 1.97
2024-02-25 11:54 pmNNW 1.0 1.9----30.17- 53.6- 51.1-- 1.90
2024-02-25 11:48 pm- 0.0 1.0----30.17- 54.0- 51.4-- 1.84
2024-02-25 11:42 pm- 0.0 1.0----30.17- 54.1- 51.6-- 1.77
2024-02-25 11:36 pm- 0.0 1.0----30.18- 54.3- 51.6-- 1.71
2024-02-25 11:30 pm- 0.0 1.0----30.18- 54.3- 51.6-- 1.67
2024-02-25 11:24 pm NW 1.0 1.9----30.17- 54.7- 51.8-- 1.61
2024-02-25 11:18 pm- 0.0 1.9----30.17- 55.0- 52.2-- 1.51
2024-02-25 11:12 pm- 0.0 1.0----30.17- 55.0- 52.2-- 1.44
2024-02-25 11:06 pm- 0.0 1.0----30.17- 55.2- 52.2-- 1.41
2024-02-25 11:00 pm- 0.0 0.0----30.17+0.04 55.4- 52.0-- 1.38
2024-02-25 10:54 pm- 0.0 1.0----30.17- 55.6- 52.0-- 1.31
2024-02-25 10:48 pm- 0.0 1.0----30.17- 55.8- 52.2-- 1.28
2024-02-25 10:42 pm- 0.0 1.9----30.17- 56.1- 52.3-- 1.21
2024-02-25 10:36 pmWNW 1.0 1.9----30.17- 56.5- 52.2-- 1.18
2024-02-25 10:30 pm W 1.0 1.9----30.17- 56.8- 52.2-- 1.12
2024-02-25 10:24 pm W 1.9 1.9----30.16- 57.0- 52.2-- 1.08
2024-02-25 10:18 pm W 1.9 2.9----30.16- 57.6- 52.5-- 1.05
2024-02-25 10:12 pmWNW 1.9 2.9----30.16- 57.2- 52.3-- 1.02
2024-02-25 10:06 pm W 1.9 2.9----30.16- 57.4- 52.2-- 0.98
2024-02-25 10:00 pm W 1.9 2.9----30.16+0.03 57.6- 52.0-- 0.95
2024-02-25 09:54 pm W 1.9 2.9----30.16- 58.1- 52.3-- 0.92
2024-02-25 09:48 pm W 1.9 2.9----30.16- 58.5- 52.7-- 0.89
2024-02-25 09:42 pmWSW 2.9 4.1----30.16- 58.5- 52.3-- 0.89
2024-02-25 09:36 pmWSW 2.9 4.1----30.15- 58.6- 52.5-- 0.89
2024-02-25 09:30 pmWSW 2.9 4.1----30.15- 58.8- 52.5-- 0.85
2024-02-25 09:24 pmWSW 4.1 5.1----30.15- 59.0- 52.3-- 0.85
2024-02-25 09:18 pm SW 2.9 5.1----30.15- 59.0- 52.3-- 0.85
2024-02-25 09:12 pmWSW 4.1 5.1----30.15- 59.0- 52.0-- 0.85
2024-02-25 09:06 pmWSW 4.1 5.1----30.15- 59.2- 51.8-- 0.85
2024-02-25 09:00 pmWSW 4.1 6.0----30.15+0.02 59.4- 51.8-- 0.85
2024-02-25 08:54 pmWSW 4.1 5.1----30.14- 59.4- 51.8-- 0.85
2024-02-25 08:48 pmWSW 4.1 6.0----30.15- 59.4- 51.8-- 0.85
2024-02-25 08:42 pm W 5.1 6.0----30.15- 59.5- 51.6-- 0.85
2024-02-25 08:36 pmWSW 5.1 6.0----30.14- 59.9- 52.0-- 0.85
2024-02-25 08:30 pm W 5.1 6.0----30.14- 59.9- 52.0-- 0.89
2024-02-25 08:24 pmWSW 5.1 6.0----30.14- 60.1- 52.0-- 0.89
2024-02-25 08:18 pm W 5.1 6.0----30.14- 60.3- 52.2-- 0.92
2024-02-25 08:12 pmWSW 4.1 6.0----30.14- 60.4- 52.0-- 0.95
2024-02-25 08:06 pm SW 5.1 6.0----30.14- 60.4- 51.3-- 1.02
2024-02-25 08:00 pm SW 6.0 7.0----30.14+0.01 60.6- 50.7-- 1.05
2024-02-25 07:54 pm SW 6.0 7.0----30.14- 60.6- 50.7-- 1.08
2024-02-25 07:48 pm SW 5.1 5.1----30.14- 60.6- 50.9-- 1.15
2024-02-25 07:42 pm SW 4.1 5.1----30.14- 60.4- 50.5-- 1.18
2024-02-25 07:36 pm SW 5.1 6.0----30.14- 60.6- 50.7-- 1.21
2024-02-25 07:30 pm SW 6.0 7.0----30.13- 60.8- 49.8-- 1.28
2024-02-25 07:24 pmSSW 5.1 6.0----30.13- 61.2- 50.2-- 1.35
2024-02-25 07:18 pm SW 5.1 6.0----30.13- 61.0- 50.0-- 1.38
2024-02-25 07:12 pmSSW 6.0 7.0----30.13- 61.2- 49.8-- 1.44
2024-02-25 07:06 pm SW 6.0 8.0----30.13- 61.3- 49.3-- 1.51
2024-02-25 07:00 pm SW 6.0 7.0----30.13+0.01 61.7- 49.6-- 1.54
2024-02-25 06:54 pm SW 6.0 8.0----30.13- 61.7- 48.6-- 1.61
2024-02-25 06:48 pm SW 7.0 8.0----30.12- 61.9- 46.6-- 1.67
2024-02-25 06:42 pm SW 8.0 8.9----30.13- 61.9- 47.3-- 1.74
2024-02-25 06:36 pm SW 8.0 8.9----30.12- 61.9- 48.4-- 1.80
2024-02-25 06:30 pmSSW 8.0 9.9----30.13- 61.7- 48.9-- 1.87
2024-02-25 06:24 pmSSW 8.9 11.1----30.12- 61.5- 48.7-- 1.97
2024-02-25 06:18 pm S 8.0 11.1----30.13- 61.9- 48.6-- 2.07
2024-02-25 06:12 pm S 8.0 11.1----30.12- 62.1- 48.7-- 2.10
2024-02-25 06:06 pm S 8.0 11.1----30.12- 62.4- 48.9-- 2.20
2024-02-25 06:00 pm S 8.0 9.9----30.13+0.00 62.4- 47.5-- 2.30
2024-02-25 05:54 pm S 8.0 9.9----30.13- 62.2- 46.8-- 2.33
2024-02-25 05:48 pm S 8.0 11.1----30.13- 62.8- 46.8-- 2.40
2024-02-25 05:42 pm S 7.0 8.9----30.12- 63.3- 46.4-- 2.49
2024-02-25 05:36 pm S 7.0 9.9----30.12- 63.0- 46.4-- 2.56
2024-02-25 05:30 pm S 8.0 9.9----30.12- 63.0- 46.6-- 2.62
2024-02-25 05:24 pm S 8.0 9.9----30.12- 63.0- 47.3-- 2.69
2024-02-25 05:18 pm S 8.0 11.1----30.12- 63.7- 48.0-- 2.79
2024-02-25 05:12 pm S 8.9 12.0----30.12- 63.3- 47.3-- 2.82
2024-02-25 05:06 pm S 8.9 12.0----30.12- 63.1- 47.3-- 2.89
2024-02-25 05:00 pm S 8.0 12.0----30.12-0.02 63.3- 47.7-- 2.95
2024-02-25 04:54 pm S 8.0 11.1----30.12- 64.4- 47.7-- 2.99